Zurück zum Katalog

STARLINK-36253

AktivKommunikationSSO
NORAD 68028·PAYLOAD·🇺🇸 United States

Gestartet Mar 1, 2026 von Vandenberg Space Force Base

Loading…

Nächste Überflüge (nächste 24 Stunden)

TLE

AktuellSource: CelesTrak SupGP

Epoche: Sep 14, 2026, 22:24 UTC

1 68028C 26040P   26257.93381944  .00129940  00000+0  22070-2 0  2573
2 68028  97.2808 205.4405 0006644  95.4763 277.9411 15.51404983    16

Verfolge STARLINK-36253 in Echtzeit mit AllMySat

Download on the App Store